Location: downtown San Diego
(32.7310°N, 117.1990°W)
Time: 06:20:16
(UTC-07:00)

ARGOS - Pass Details

Date: 19 May 2017
Orbit: 821 x 834 km, 98.6° (Epoch: 28 May)

Event Time Altitude Azimuth Distance (km) Brightness Sun altitude
Exits shadow 22:10:27 69° 175° (S) 885 3.0 -25.6°
Maximum altitude 22:11:09 87° 257° (WSW) 835 3.0 -25.7°
Drops below altitude 10° 22:16:35 10° 346° (NNW) 2,442 6.4 -26.4°
Sets 22:18:57 0° 347° (NNW) 3,381 7.3 -26.7°
